Flag for Canada Weather past 2 weeks in Medicine Hat, Alberta, Canada

Now
48 °F

Passing clouds.


Feels Like: 43 °F
Forecast: 40 / 54 °F
Wind: 12 mph from Northwest

Location: Medicine Hat

Current Time: Apr 18, 2015 at 3:05:37 AM

Latest Report: Apr 18, 2015 at 2:00 AM


Visibility: 9 mi

Pressure: 29.99 "Hg

Humidity: 66%

Dew point: 37 °F

Location of Medicine HatLocation

Historic Weather in Medicine Hat — Graph

°F

Medicine Hat temperature yesterday

Maximum temperature yesterday: 72 °F (at 3:00 PM)
Minimum temperature yesterday: 36 °F (at 7:00 AM)
Average temperature yesterday: 55 °F

Past Weeks' High & Low Weather Summary

 TemperatureHumidityPressure
High72 °F (Apr 17, 3:00 PM)100% (Apr 3, 2:00 AM)30.27 "Hg (Apr 3, 2:00 AM)
Low23 °F (Apr 6, 4:00 AM)16% (Apr 9, 7:00 PM)29.37 "Hg (Apr 11, 2:00 PM)
Average43 °F60%29.96 "Hg
* Reported Apr 3 2:00 AM — Apr 18 2:00 AM, Medicine Hat, Weather by CustomWeather, © 2015

Note: Actual official high and low records may vary slightly from our data, if they occured in-between our weather recording intervals... More about our weather records

Advertising

Medicine Hat weather history for previous 24 hours

 ConditionsComfort  
Time TempWeatherWind HumidityBarometerVisibility
2:00 AM
Sat, Apr 18
48 °FPassing clouds.12 mph66%29.99 "Hg9 mi
1:00 AM55 °FPassing clouds.13 mph44%29.93 "Hg9 mi
12:00 AM59 °FOvercast.16 mph31%29.90 "Hg9 mi
11:00 PM
Fri, Apr 17
59 °FMostly cloudy.16 mph31%29.88 "Hg9 mi
10:00 PM57 °FPassing clouds.9 mph36%29.88 "Hg9 mi
9:00 PM57 °FScattered clouds.10 mph36%29.88 "Hg15 mi
8:00 PM66 °FPassing clouds.9 mph26%29.87 "Hg30 mi
7:00 PM70 °FPartly sunny.13 mph23%29.89 "Hg30 mi
6:00 PM70 °FPartly sunny.14 mph23%29.92 "Hg30 mi
5:00 PM72 °FPassing clouds.14 mph20%29.94 "Hg30 mi
4:00 PM72 °FPassing clouds.15 mph22%29.98 "Hg30 mi
3:00 PM72 °FPassing clouds.13 mph22%30.02 "Hg30 mi
2:00 PM68 °FPassing clouds.No wind23%30.06 "Hg30 mi
1:00 PM64 °FPassing clouds.7 mph28%30.12 "Hg30 mi
12:00 PM66 °FPassing clouds.9 mph24%30.14 "Hg30 mi
11:00 AM61 °FPassing clouds.13 mph25%30.18 "Hg30 mi
10:00 AM57 °FPassing clouds.8 mph33%30.20 "Hg30 mi
9:00 AM50 °FPassing clouds.9 mph50%30.23 "Hg30 mi
8:00 AM43 °FSunny.6 mph66%30.24 "Hg30 mi
7:00 AM36 °FClear.6 mph81%30.25 "Hg30 mi
6:00 AM39 °FClear.5 mph70%30.24 "Hg9 mi
5:00 AM41 °FClear.3 mph66%30.23 "Hg9 mi
4:00 AM39 °FClear.6 mph65%30.22 "Hg9 mi
3:00 AM41 °FClear.10 mph70%30.19 "Hg9 mi
Weather by CustomWeather, © 2015

See weather overviewHow to use our weather pages